Location: Delta State University
(33.7460°N, 90.7320°W)
Time: 12:11:37
(UTC-05:00)

Iridium 13 - Visible Passes

Search period start: 01 October 2016 00:00
Search period end: 11 October 2016 00:00
Orbit: 776 x 779 km, 86.4° (Epoch: 30 September)

Date Brightness Start Highest point End Pass type
(mag) Time Alt. Az. Time Alt. Az. Time Alt. Az.
01 Oct 7.5 06:19:31 10° SSE 06:24:12 35° E 06:28:54 10° NNE visible
02 Oct 8.6 05:47:28 10° ESE 05:50:55 18° E 05:54:23 10° NE visible
02 Oct 8.7 19:42:13 10° NW 19:45:29 17° W 19:48:46 10° WSW visible
03 Oct 7.7 19:07:36 10° NNW 19:12:13 33° W 19:16:49 10° SSW visible
04 Oct 6.5 06:19:11 10° SSE 06:24:13 52° E 06:29:16 10° NNE visible
05 Oct 7.8 05:46:33 10° SE 05:50:52 27° E 05:55:12 10° NNE visible
05 Oct 9.1 19:43:59 10° WNW 19:45:23 11° WNW 19:46:47 10° W visible
06 Oct 8.8 05:15:03 10° ESE 05:17:38 14° E 05:20:13 10° NE visible
06 Oct 8.4 19:08:15 10° NNW 19:12:11 22° W 19:16:07 10° SW visible
07 Oct 5.7 06:19:04 10° S 06:24:16 79° E 06:29:29 10° N visible
08 Oct 7.0 05:46:02 10° SSE 05:50:50 40° E 05:55:41 10° NNE visible
09 Oct 8.1 05:13:44 10° SE 05:17:33 21° E 05:21:21 10° NE visible
09 Oct 8.7 19:09:17 10° NW 19:12:06 15° W 19:14:56 10° WSW visible
10 Oct 8.9 04:43:39 10° E 04:44:22 10° ENE 04:45:04 10° ENE visible
10 Oct 5.5 06:19:11 10° S 06:24:21 69° W 06:29:34 10° N visible
